sat.trackr.live / text

‹ back to catalog

UNKNOWN

NORAD 81036

UNKNOWN UNKNOWN UNKNOWN

§ Identity

Operator
Country
Launch date
Launch site
Launch vehicle
Mass (kg)
RCS (m²)

External: N2YO · Heavens-Above

§ Orbital elements

Epoch: 2026-09-17T00:09:24.774336Z

Period
154.23 min
Inclination
66.0968°
Eccentricity
0.2595221
Mean motion
9.33697886 rev/d
Perigee alt
676.0 km
Apogee alt
5,620.6 km
Semi-major
9,526.4 km
B*
1.9375e-3
RAAN
120.6997°
Arg perigee
96.5275°
Mean anomaly
293.4330°
Rev number
4,768

§ Raw data

UNKNOWN1 81036U          26260.00653674  .00000928  00000+0  19375-2 0  99902 81036  66.0968 120.6997 2595221  96.5275 293.4330  9.33697886 47687

JSON: /api/v1/satellites/81036 · /tle

For live sub-satellite position, see the globe view (requires WebGL).

§ Visibility from observer

Set your observer location to see the next 7 days of passes ≥ 10°. The values pass through the URL so the page stays shareable.

No JS? Fill the form by hand. The geolocation button needs JavaScript.